Hourly Weather Roundup
Issued by NWS

Current Version | Previous Version | Text Only | Print | Product List | Glossary On
Versions: 1 2 3 4 5 6 7 8 9 10 11 12 13 14 15 16 17 18 19 20 21 22 23 24 25 26 27 28 29 30 31 32 33 34 35 36 37 38 39 40 41 42 43 44 45 46 47 48 49 50
000
NZUS43 KILX 222110
HWRCRS

NWR Hourly Weather Roundup
National Weather Service Lincoln IL
400 PM CDT SAT JUL 22 2017


CITY           SKY/WX    TMP DP  RH WIND       PRES   REMARKS
Champaign      MOSUNNY   88  78  72 SW7       29.82F HX 101
Lawrenceville  SUNNY     96  75  50 SW16      29.81S HX 108
Peoria         CLOUDY    86  76  71 W7        29.81F HX  96
Springfield    MOSUNNY   93  79  63 W7        29.80F HX 110
$$


CITY           SKY/WX    TMP DP  RH WIND       PRES   REMARKS
Bloomington    CLOUDY    85  76  74 W10       29.84S HX  94
Danville       CLOUDY    87  74  66 NW7       29.80F HX  95
Decatur        PTSUNNY   92  74  55 W10       29.81F HX 101
Effingham      MOSUNNY   98  74  46 SW13G18   29.82S HX 109
Flora          SUNNY     97  77  51 SW13G21   29.80S HX 112
Galesburg      CLOUDY    85  76  75 NW3       29.82F HX  95
Jacksonville   MOSUNNY   92  76  59 S6        29.79F HX 103
Lacon          CLOUDY    84  75  74 W3        29.81S HX  92
La Salle       CLOUDY    77  70  78 W3        29.82S
Lincoln        MOSUNNY   91  76  62 SW5       29.81S HX 103
Litchfield     MOSUNNY   94  76  54 SW8       29.80F HX 106

CITY           SKY/WX    TMP DP  RH WIND       PRES   REMARKS
Macomb         CLOUDY    89  77  67 NW6       29.82S HX 101
Mattoon        SUNNY     94  75  54 VRB7G17   29.81F HX 105
Moline         CLOUDY    85  73  67 NW6       29.80F HX  91
Olney          MOSUNNY   95  74  51 S8G17     29.82R HX 105
Paris          SUNNY     89  79  72 NW5       29.82F HX 104
Pontiac        CLOUDY    84  78  83 N5        29.83S HX  95
Quincy         MOSUNNY   97  75  49 W10       29.78F HX 109
Rantoul        CLOUDY    89  77  69 W9        29.82F HX 101
Robinson       SUNNY     93  74  54 SW9G21    29.81S HX 103
Taylorville    PTSUNNY   90  77  66 SW3       29.81F HX 102
Terre Haute    MOSUNNY   91  77  63 N3        29.81F HX 104
$$


CITY           SKY/WX    TMP DP  RH WIND       PRES   REMARKS
Burlington     CLOUDY    88  79  74 CALM      29.79F HX 103
Chicago        PTSUNNY   86  70  58 N8        29.80F HX  90
Des Moines     MOSUNNY   90  73  57 N9        29.83R HX  98
Evansville     SUNNY     97  71  42 SW22G35   29.79F HX 104
Indianapolis   PTSUNNY   89  71  55 NW13      29.82F HX  95
Kansas City    MOSUNNY   98  76  49 W5        29.82F HX 112
Milwaukee      PTSUNNY   81  72  74 VRB6      29.82S HX  85
St Louis       MOSUNNY  107  67  27 W14       29.77F HX 113
$$





USA.gov is the U.S. government's official web portal to all federal, state and local government web resources and services.